Pecos, TX

2:06 PM CDT on July 26, 2017 (GMT -0500)
Pecos Municipal

Weather History for KPEQ - October, 2011

Change the Weather History Date:

Friday, October 7, 2011

  Actual Average Record
Temperature  
Mean Temperature 79 °F -  
Max Temperature 100 °F 82 °F 100 °F (2011)
Min Temperature 58 °F 53 °F 30 °F (1952)
Cooling Degree Days 14    
Growing Degree Days 29 (Base 50)    
Moisture  
Dew Point 49 °F    
Average Humidity 42    
Maximum Humidity 74    
Minimum Humidity 8    
Precipitation  
Precipitation 0.00 in - - ()
Sea Level Pressure  
Sea Level Pressure 29.81 in    
Wind  
Wind Speed 11 mph (SSE)    
Max Wind Speed 29 mph    
Max Gust Speed 37 mph    
Visibility 10 miles    
Events      
Averages and records for this station are not official NWS values.
T = Trace of Precipitation, MM = Missing Value Source: NWS Daily Summary

Daily Weather History Graph

Daily Weather History Graph

Search for Another Location

Airport or City:

Trip Planner

Search our weather history database for the weather conditions in past years. The results will help you decide how hot, cold, wet, or windy it might be!

Date:

Astronomy

Oct. 07, 2011 Rise Set
Actual Time 7:51 AM CDT 7:31 PM CDT
Civil Twilight 7:27 AM CDT 7:56 PM CDT
Nautical Twilight 6:59 AM CDT 8:24 PM CDT
Astronomical Twilight 6:30 AM CDT 8:52 PM CDT
Moon 5:03 PM CDT (10/7) 3:56 AM CDT (10/7)
Length of Visible Light 12h 28m
Length of Day
11h 40m
Waxing Gibbous, 83% of the Moon is Illuminated
Oct 7
Waxing Gibbous
Oct 11
Full
Oct 19
Last Quarter
Oct 26
New
Nov 2
First Quarter

Hourly Weather History & Observations

Time (CDT) Temp. Heat Index Dew Point Humidity Pressure Visibility Wind Dir Wind Speed Gust Speed Precip Events Conditions
12:15 AM 78.3 °F - 59.0 °F 51% 29.78 in 10.0 mi SE 17.3 mph - N/A   Clear
12:35 AM 77.9 °F - 59.0 °F 52% 29.78 in 10.0 mi SE 17.3 mph - N/A   Clear
12:55 AM 77.5 °F - 59.0 °F 53% 29.77 in 10.0 mi SE 16.1 mph - N/A   Clear
1:15 AM 77.0 °F - 59.0 °F 54% 29.77 in 10.0 mi SE 17.3 mph 24.2 mph N/A   Clear
1:35 AM 76.8 °F - 59.0 °F 54% 29.77 in 10.0 mi SE 18.4 mph 23.0 mph N/A   Clear
1:55 AM 76.3 °F - 59.0 °F 55% 29.77 in 10.0 mi SE 17.3 mph 24.2 mph N/A   Clear
2:15 AM 75.9 °F - 59.0 °F 56% 29.81 in 10.0 mi SW 5.8 mph - N/A   Clear
2:35 AM 74.8 °F - 58.8 °F 57% 29.82 in 10.0 mi SSW 3.5 mph - N/A   Clear
2:55 AM 73.8 °F - 58.5 °F 59% 29.81 in 10.0 mi SE 8.1 mph - N/A   Clear
3:15 AM 72.5 °F - 58.5 °F 61% 29.80 in 10.0 mi SE 9.2 mph - N/A   Clear
3:35 AM 71.8 °F - 58.6 °F 63% 29.80 in 10.0 mi SE 8.1 mph - N/A   Clear
3:55 AM 71.8 °F - 58.8 °F 64% 29.80 in 10.0 mi SSE 11.5 mph - N/A   Clear
4:15 AM 72.1 °F - 58.8 °F 63% 29.81 in 10.0 mi SSE 10.4 mph - N/A   Clear
4:35 AM 72.0 °F - 58.8 °F 63% 29.81 in 10.0 mi SSE 10.4 mph - N/A   Clear
4:55 AM 72.0 °F - 58.5 °F 62% 29.82 in 10.0 mi SSE 9.2 mph - N/A   Clear
5:15 AM 71.2 °F - 58.1 °F 63% 29.82 in 10.0 mi SSE 6.9 mph - N/A   Clear
5:35 AM 69.8 °F - 57.9 °F 66% 29.83 in 10.0 mi WSW 6.9 mph - N/A   Clear
5:55 AM 66.6 °F - 56.8 °F 71% 29.83 in 10.0 mi SSW 3.5 mph - N/A   Clear
6:15 AM 65.3 °F - 56.5 °F 73% 29.84 in 10.0 mi SSW 3.5 mph - N/A   Clear
6:35 AM 65.1 °F - 56.5 °F 74% 29.84 in 10.0 mi Calm Calm - N/A   Clear
6:55 AM 64.2 °F - 55.0 °F 72% 29.84 in 10.0 mi West 5.8 mph - N/A   Clear
7:15 AM 60.4 °F - 51.6 °F 73% 29.85 in 10.0 mi WSW 4.6 mph - N/A   Clear
7:35 AM 59.5 °F - 50.4 °F 72% 29.85 in 10.0 mi West 6.9 mph - N/A   Clear
7:55 AM 58.5 °F - 48.6 °F 70% 29.86 in 10.0 mi Calm Calm - N/A   Clear
8:15 AM 59.4 °F - 48.9 °F 68% 29.87 in 10.0 mi NNE 3.5 mph - N/A   Clear
8:35 AM 61.5 °F - 52.2 °F 71% 29.87 in 10.0 mi Calm Calm - N/A   Clear
8:55 AM 64.0 °F - 54.5 °F 71% 29.87 in 10.0 mi Calm Calm - N/A   Clear
9:15 AM 68.4 °F - 57.7 °F 69% 29.88 in 10.0 mi East 6.9 mph - N/A   Clear
9:35 AM 72.7 °F - 59.7 °F 64% 29.88 in 10.0 mi East 8.1 mph - N/A   Clear
9:55 AM 74.7 °F - 59.2 °F 58% 29.89 in 10.0 mi East 6.9 mph - N/A   Clear
10:15 AM 76.8 °F - 58.8 °F 54% 29.90 in 10.0 mi ESE 6.9 mph - N/A   Clear
10:35 AM 79.0 °F - 57.7 °F 48% 29.90 in 10.0 mi East 5.8 mph - N/A   Clear
10:55 AM 81.0 °F 81.0 °F 57.2 °F 44% 29.90 in 10.0 mi SE 6.9 mph - N/A   Clear
11:15 AM 83.7 °F 82.5 °F 54.5 °F 37% 29.89 in 10.0 mi SE 8.1 mph - N/A   Clear
11:35 AM 85.8 °F - 52.2 °F 31% 29.88 in 10.0 mi SE 4.6 mph - N/A   Clear
11:55 AM 88.0 °F - 49.3 °F 26% 29.88 in 10.0 mi SE 8.1 mph - N/A   Clear
12:15 PM 90.0 °F - 45.3 °F 21% 29.86 in 10.0 mi SSE 9.2 mph - N/A   Clear
12:35 PM 91.9 °F - 42.3 °F 18% 29.86 in 10.0 mi South 9.2 mph - N/A   Clear
12:55 PM 93.6 °F - 40.1 °F 16% 29.84 in 10.0 mi ESE 6.9 mph - N/A   Clear
1:15 PM 94.5 °F - 38.5 °F 14% 29.83 in 10.0 mi ESE 3.5 mph - N/A   Clear
1:35 PM 95.4 °F - 34.5 °F 12% 29.82 in 10.0 mi West 4.6 mph - N/A   Clear
2:15 PM 97.5 °F - 32.0 °F 10% 29.79 in 10.0 mi SSW 10.4 mph 18.4 mph N/A   Clear
2:35 PM 97.9 °F - 32.5 °F 10% 29.79 in 10.0 mi SW 6.9 mph 21.9 mph N/A   Clear
2:55 PM 98.4 °F - 32.4 °F 10% 29.78 in 10.0 mi South 12.7 mph 21.9 mph N/A   Clear
3:15 PM 98.2 °F - 32.0 °F 10% 29.77 in 10.0 mi SE 6.9 mph - N/A   Clear
3:35 PM 98.4 °F - 32.0 °F 10% 29.76 in 10.0 mi SSW 4.6 mph - N/A   Clear
3:55 PM 98.2 °F - 33.1 °F 10% 29.75 in 10.0 mi WNW 4.6 mph - N/A   Clear
4:15 PM 98.6 °F - 32.4 °F 10% 29.74 in 10.0 mi SSW 10.4 mph 20.7 mph N/A   Clear
4:35 PM 99.7 °F - 28.9 °F 8% 29.74 in 10.0 mi SSW 15.0 mph - N/A   Clear
4:55 PM 100.0 °F - 27.9 °F 8% 29.73 in 10.0 mi South 19.6 mph 25.3 mph N/A   Clear
5:15 PM 99.7 °F - 28.0 °F 8% 29.73 in 10.0 mi SSE 8.1 mph 23.0 mph N/A   Clear
5:35 PM 99.3 °F - 28.4 °F 8% 29.72 in 10.0 mi South 18.4 mph 23.0 mph N/A   Clear
5:55 PM 98.8 °F - 29.1 °F 9% 29.72 in 10.0 mi South 18.4 mph 27.6 mph N/A   Clear
6:15 PM 98.2 °F - 28.6 °F 9% 29.72 in 10.0 mi South 19.6 mph 26.5 mph N/A   Clear
6:35 PM 96.4 °F - 39.4 °F 14% 29.72 in 10.0 mi SE 25.3 mph 32.2 mph N/A   Clear
6:55 PM 92.1 °F 89.7 °F 54.0 °F 27% 29.73 in 10.0 mi SE 27.6 mph 36.8 mph N/A   Clear
7:15 PM 89.2 °F 87.5 °F 55.6 °F 32% 29.73 in 10.0 mi SE 28.8 mph 36.8 mph N/A   Clear
7:35 PM 87.4 °F 85.9 °F 55.9 °F 34% 29.74 in 10.0 mi SE 27.6 mph 35.7 mph N/A   Clear
7:55 PM 86.0 °F 84.9 °F 57.0 °F 37% 29.75 in 10.0 mi SE 26.5 mph 33.4 mph N/A   Clear
8:15 PM 84.9 °F 84.1 °F 57.6 °F 39% 29.76 in 10.0 mi SE 27.6 mph 36.8 mph N/A   Clear
8:35 PM 84.0 °F 83.5 °F 58.3 °F 41% 29.77 in 10.0 mi SE 25.3 mph 31.1 mph N/A   Clear
8:55 PM 83.3 °F 83.1 °F 58.5 °F 43% 29.77 in 10.0 mi SE 24.2 mph 31.1 mph N/A   Clear
9:15 PM 82.8 °F 82.5 °F 58.3 °F 43% 29.78 in 10.0 mi SE 21.9 mph 28.8 mph N/A   Clear
9:35 PM 82.4 °F 82.3 °F 58.5 °F 44% 29.79 in 10.0 mi SE 23.0 mph 31.1 mph N/A   Clear
9:55 PM 82.2 °F 82.3 °F 58.6 °F 45% 29.80 in 10.0 mi SE 23.0 mph 33.4 mph N/A   Clear
10:15 PM 81.9 °F 81.9 °F 58.5 °F 45% 29.80 in 10.0 mi SE 19.6 mph 27.6 mph N/A   Clear
10:35 PM 81.3 °F 81.4 °F 58.3 °F 45% 29.80 in 10.0 mi SE 20.7 mph 24.2 mph N/A   Clear
10:55 PM 81.0 °F 81.1 °F 57.9 °F 45% 29.80 in 10.0 mi SE 16.1 mph 20.7 mph N/A   Clear
11:15 PM 80.8 °F 81.0 °F 57.7 °F 45% 29.79 in 10.0 mi SE 17.3 mph 24.2 mph N/A   Clear
11:35 PM 80.8 °F 81.0 °F 57.6 °F 45% 29.79 in 10.0 mi SE 16.1 mph 20.7 mph N/A   Clear
11:55 PM 80.6 °F 80.8 °F 57.2 °F 45% 29.79 in 10.0 mi SE 17.3 mph 21.9 mph N/A   Clear